| time (UTC) | temp F | wind direction | speed knots | gust knots | rain 1hr in | rain 24hr in | rain mn in | humidity % | barometer mb |
| 20260504190503 | 74 | 358 | 4.3 | 12.2 | 0.00 | 0.00 | 0.00 | 34 | 1013.2 |
| 20260504190003 | 74 | 353 | 3.5 | 11.3 | 0.00 | 0.00 | 0.00 | 37 | 1013.2 |
| 20260504185502 | 74 | 352 | 3.5 | 11.3 | 0.00 | 0.00 | 0.00 | 32 | 1013.4 |
| 20260504185002 | 74 | 354 | 2.6 | 9.6 | 0.00 | 0.00 | 0.00 | 35 | 1013.3 |
| 20260504184503 | 74 | 356 | 2.6 | 9.6 | 0.00 | 0.00 | 0.00 | 34 | 1013.5 |
| 20260504184002 | 74 | 350 | 2.6 | 7.8 | 0.00 | 0.00 | 0.00 | 32 | 1013.6 |
| 20260504183502 | 74 | 348 | 3.5 | 7.8 | 0.00 | 0.00 | 0.00 | 32 | 1013.6 |
| 20260504183003 | 74 | 352 | 2.6 | 7.8 | 0.00 | 0.00 | 0.00 | 32 | 1013.7 |
| 20260504182502 | 74 | 349 | 3.5 | 8.7 | 0.00 | 0.00 | 0.00 | 34 | 1013.8 |
| 20260504182003 | 74 | 350 | 3.5 | 8.7 | 0.00 | 0.00 | 0.00 | 34 | 1013.8 |
| 20260504181002 | 74 | 350 | 2.6 | 7.8 | 0.00 | 0.00 | 0.00 | 34 | 1013.8 |
| 20260504180503 | 74 | 349 | 2.6 | 7.8 | 0.00 | 0.00 | 0.00 | 33 | 1013.8 |
| 20260504180003 | 74 | 344 | 2.6 | 8.7 | 0.00 | 0.00 | 0.00 | 34 | 1013.8 |
| 20260504175503 | 73 | 348 | 2.6 | 9.6 | 0.00 | 0.00 | 0.00 | 33 | 1013.9 |
| 20260504175003 | 73 | 345 | 2.6 | 9.6 | 0.00 | 0.00 | 0.00 | 34 | 1013.8 |
| 20260504174502 | 73 | 342 | 2.6 | 7.8 | 0.00 | 0.00 | 0.00 | 33 | 1013.8 |
| 20260504174003 | 73 | 347 | 2.6 | 6.1 | 0.00 | 0.00 | 0.00 | 37 | 1013.8 |
| 20260504173503 | 73 | 347 | 2.6 | 6.1 | 0.00 | 0.00 | 0.00 | 36 | 1013.9 |
| 20260504173002 | 73 | 338 | 1.7 | 5.2 | 0.00 | 0.00 | 0.00 | 38 | 1014.1 |
| 20260504172504 | 73 | 338 | 2.6 | 7.8 | 0.00 | 0.00 | 0.00 | 34 | 1014.1 |
| 20260504172002 | 73 | 341 | 2.6 | 7.8 | 0.00 | 0.00 | 0.00 | 34 | 1014.1 |
| 20260504171503 | 73 | 336 | 2.6 | 7.8 | 0.00 | 0.00 | 0.00 | 34 | 1014.2 |
| 20260504171002 | 73 | 337 | 2.6 | 9.6 | 0.00 | 0.00 | 0.00 | 34 | 1014.3 |
| 20260504170503 | 73 | 346 | 3.5 | 9.6 | 0.00 | 0.00 | 0.00 | 33 | 1014.5 |
| 20260504151003 | 70 | 332 | 2.6 | 7.0 | 0.00 | 0.00 | 0.00 | 48 | 1015.3 |
| 20260504150503 | 69 | 326 | 2.6 | 7.0 | 0.00 | 0.00 | 0.00 | 47 | 1015.3 |
| 20260504141002 | 67 | 349 | 3.5 | 12.2 | 0.00 | 0.00 | 0.00 | 47 | 1015.4 |
| 20260504140503 | 67 | 336 | 3.5 | 10.4 | 0.00 | 0.00 | 0.00 | 50 | 1015.6 |
| 20260504130503 | 61 | 339 | 1.7 | 6.1 | 0.00 | 0.00 | 0.00 | 69 | 1016.5 |
| 20260504110503 | 52 | 15 | 1.7 | 5.2 | 0.00 | 0.00 | 0.00 | 81 | 1017.3 |
| 20260504100502 | 51 | 359 | 1.7 | 6.1 | 0.00 | 0.00 | 0.00 | 82 | 1016.9 |
| 20260504081503 | 50 | 357 | 2.6 | 6.1 | 0.00 | 0.00 | 0.00 | 82 | 1017.5 |
| 20260504081003 | 50 | 2 | 2.6 | 5.2 | 0.00 | 0.00 | 0.00 | 82 | 1017.5 |
| 20260504080503 | 50 | 10 | 1.7 | 5.2 | 0.00 | 0.00 | 0.00 | 82 | 1017.5 |
| 20260504050504 | 45 | 26 | 0.9 | 3.5 | 0.00 | 0.00 | 0.00 | 73 | 1017.6 |
| 20260504050003 | 45 | 28 | 1.7 | 3.5 | 0.00 | 0.00 | 0.00 | 73 | 1017.6 |
| 20260504045503 | 45 | 16 | 1.7 | 3.5 | 0.00 | 0.00 | 0.00 | 73 | 1017.5 |
| 20260504045002 | 45 | 13 | 0.9 | 3.5 | 0.00 | 0.00 | 0.00 | 73 | 1017.6 |
| 20260504044503 | 45 | 14 | 0.9 | 2.6 | 0.00 | 0.00 | 0.00 | 73 | 1017.5 |
| 20260504043503 | 45 | 34 | 0.9 | 2.6 | 0.00 | 0.00 | 0.00 | 72 | 1017.4 |
| 20260504043004 | 45 | 11 | 0.9 | 2.6 | 0.00 | 0.00 | 0.00 | 72 | 1017.4 |
| 20260504042503 | 44 | 3 | 0.9 | 2.6 | 0.00 | 0.00 | 0.00 | 72 | 1017.3 |
| 20260504042003 | 45 | 353 | 0.9 | 2.6 | 0.00 | 0.00 | 0.00 | 72 | 1017.3 |
| 20260504041504 | 45 | 356 | 0.0 | 1.7 | 0.00 | 0.00 | 0.00 | 72 | 1017.3 |
| 20260504040504 | 45 | 70 | 0.0 | 1.7 | 0.00 | 0.00 | 0.00 | 70 | 1017.1 |
| 20260504040002 | 45 | 52 | 0.9 | 1.7 | 0.00 | 0.00 | 0.00 | 70 | 1017.1 |
| 20260504035503 | 45 | 12 | 0.9 | 1.7 | 0.00 | 0.00 | 0.00 | 69 | 1016.9 |
| 20260504034503 | 46 | 5 | 0.9 | 1.7 | 0.00 | 0.00 | 0.00 | 69 | 1017.0 |
| 20260504034003 | 46 | 3 | 0.9 | 2.6 | 0.00 | 0.00 | 0.00 | 68 | 1017.0 |
| 20260504033502 | 46 | 11 | 0.9 | 2.6 | 0.00 | 0.00 | 0.00 | 68 | 1016.8 |
| 20260504033003 | 46 | 13 | 0.9 | 2.6 | 0.00 | 0.00 | 0.00 | 68 | 1016.8 |
| 20260504032502 | 46 | 11 | 0.9 | 1.7 | 0.00 | 0.00 | 0.00 | 67 | 1016.9 |
| 20260504032003 | 46 | 8 | 0.0 | 1.7 | 0.00 | 0.00 | 0.00 | 68 | 1016.8 |
| 20260504031504 | 46 | 68 | 0.0 | 1.7 | 0.00 | 0.00 | 0.00 | 67 | 1016.8 |
| 20260504031002 | 47 | 63 | 0.9 | 1.7 | 0.00 | 0.00 | 0.00 | 66 | 1016.8 |
| 20260504030503 | 47 | 3 | 0.9 | 1.7 | 0.00 | 0.00 | 0.00 | 65 | 1016.7 |
| 20260504030002 | 47 | 1 | 0.9 | 1.7 | 0.00 | 0.00 | 0.00 | 64 | 1016.8 |
| 20260504025503 | 47 | 3 | 0.9 | 1.7 | 0.00 | 0.00 | 0.00 | 64 | 1016.8 |
| 20260504025002 | 47 | 4 | 0.9 | 1.7 | 0.00 | 0.00 | 0.00 | 64 | 1016.7 |
| 20260504024503 | 48 | 2 | 0.9 | 1.7 | 0.00 | 0.00 | 0.00 | 64 | 1016.8 |
| 20260504024002 | 48 | 5 | 0.9 | 1.7 | 0.00 | 0.00 | 0.00 | 62 | 1016.8 |
| 20260504023503 | 48 | 6 | 0.9 | 1.7 | 0.00 | 0.00 | 0.00 | 61 | 1016.8 |
| 20260504022504 | 48 | 4 | 0.9 | 2.6 | 0.00 | 0.00 | 0.00 | 59 | 1016.7 |
| 20260504022002 | 48 | 4 | 0.9 | 2.6 | 0.00 | 0.00 | 0.00 | 60 | 1016.7 |
| 20260504021502 | 48 | 11 | 0.9 | 3.5 | 0.00 | 0.00 | 0.00 | 59 | 1016.8 |
| 20260504021003 | 48 | 6 | 0.9 | 3.5 | 0.00 | 0.00 | 0.00 | 60 | 1016.7 |
| 20260504020503 | 48 | 1 | 0.9 | 2.6 | 0.00 | 0.00 | 0.00 | 60 | 1016.8 |
| 20260504015003 | 49 | 6 | 0.9 | 2.6 | 0.00 | 0.00 | 0.00 | 60 | 1016.6 |
| 20260504014502 | 49 | 13 | 0.9 | 1.7 | 0.00 | 0.00 | 0.00 | 59 | 1016.6 |
| 20260504014003 | 49 | 24 | 0.9 | 1.7 | 0.00 | 0.00 | 0.00 | 58 | 1016.6 |
| 20260504013502 | 50 | 6 | 0.9 | 2.6 | 0.00 | 0.00 | 0.00 | 59 | 1016.5 |
| 20260504013003 | 50 | 4 | 0.9 | 2.6 | 0.00 | 0.00 | 0.00 | 57 | 1016.5 |
| 20260504012003 | 50 | 4 | 0.0 | 1.7 | 0.00 | 0.00 | 0.00 | 55 | 1016.3 |
| 20260504011503 | 50 | 4 | 0.9 | 1.7 | 0.00 | 0.00 | 0.00 | 55 | 1016.3 |
| 20260504011003 | 51 | 10 | 0.9 | 1.7 | 0.00 | 0.00 | 0.00 | 54 | 1016.3 |
| 20260504010502 | 51 | 11 | 0.9 | 2.6 | 0.00 | 0.00 | 0.00 | 53 | 1016.3 |
| 20260504004503 | 52 | 6 | 0.0 | 1.7 | 0.00 | 0.00 | 0.00 | 52 | 1016.0 |
| 20260504003003 | 53 | 298 | 0.0 | 1.7 | 0.00 | 0.00 | 0.00 | 48 | 1015.9 |
| 20260504002502 | 54 | 318 | 0.0 | 1.7 | 0.00 | 0.00 | 0.00 | 47 | 1015.8 |
| 20260504002003 | 55 | 342 | 0.0 | 1.7 | 0.00 | 0.00 | 0.00 | 46 | 1015.7 |
| 20260504001503 | 55 | 350 | 0.0 | 1.7 | 0.00 | 0.00 | 0.00 | 47 | 1015.6 |
| 20260504001003 | 56 | 352 | 0.0 | 1.7 | 0.00 | 0.00 | 0.00 | 45 | 1015.5 |
| 20260504000504 | 56 | 337 | 0.0 | 1.7 | 0.00 | 0.00 | 0.00 | 43 | 1015.4 |
| 20260504000003 | 56 | 299 | 0.0 | 1.7 | 0.00 | 0.00 | 0.00 | 42 | 1015.4 |
| 20260503235503 | 57 | 290 | 0.0 | 1.7 | 0.00 | 0.00 | 0.00 | 41 | 1015.4 |
| 20260503235002 | 57 | 289 | 0.0 | 1.7 | 0.00 | 0.00 | 0.00 | 42 | 1015.3 |
| 20260503234504 | 58 | 297 | 0.0 | 1.7 | 0.00 | 0.00 | 0.00 | 39 | 1015.2 |
| 20260503234003 | 58 | 306 | 0.9 | 3.5 | 0.00 | 0.00 | 0.00 | 39 | 1015.3 |
| 20260503233502 | 58 | 309 | 0.9 | 3.5 | 0.00 | 0.00 | 0.00 | 38 | 1015.3 |
| 20260503233002 | 59 | 296 | 0.9 | 2.6 | 0.00 | 0.00 | 0.00 | 37 | 1015.3 |
| 20260503232503 | 59 | 289 | 0.9 | 3.5 | 0.00 | 0.00 | 0.00 | 36 | 1015.3 |
| 20260503232003 | 59 | 303 | 1.7 | 6.1 | 0.00 | 0.00 | 0.00 | 35 | 1015.3 |
| 20260503231502 | 59 | 312 | 1.7 | 6.1 | 0.00 | 0.00 | 0.00 | 36 | 1015.3 |
| 20260503231004 | 60 | 303 | 1.7 | 6.1 | 0.00 | 0.00 | 0.00 | 36 | 1015.3 |
| 20260503230503 | 60 | 306 | 2.6 | 7.8 | 0.00 | 0.00 | 0.00 | 35 | 1015.3 |
| 20260503230002 | 60 | 308 | 2.6 | 9.6 | 0.00 | 0.00 | 0.00 | 34 | 1015.1 |
| 20260503225503 | 60 | 312 | 2.6 | 9.6 | 0.00 | 0.00 | 0.00 | 34 | 1015.1 |
| 20260503224503 | 60 | 318 | 3.5 | 8.7 | 0.00 | 0.00 | 0.00 | 35 | 1015.1 |
| 20260503224003 | 60 | 318 | 3.5 | 10.4 | 0.00 | 0.00 | 0.00 | 34 | 1015.1 |
| 20260503223003 | 61 | 305 | 2.6 | 7.8 | 0.00 | 0.00 | 0.00 | 36 | 1015.1 |
| 20260503222503 | 61 | 303 | 2.6 | 8.7 | 0.00 | 0.00 | 0.00 | 35 | 1015.1 |
| 20260503222002 | 61 | 305 | 3.5 | 8.7 | 0.00 | 0.00 | 0.00 | 33 | 1015.2 |
| 20260503221503 | 61 | 307 | 3.5 | 7.0 | 0.00 | 0.00 | 0.00 | 34 | 1015.2 |
| 20260503221002 | 61 | 316 | 3.5 | 7.0 | 0.00 | 0.00 | 0.00 | 33 | 1015.1 |
| 20260503220503 | 61 | 312 | 3.5 | 7.8 | 0.00 | 0.00 | 0.00 | 34 | 1015.1 |
| 20260503220003 | 61 | 313 | 3.5 | 7.8 | 0.00 | 0.00 | 0.00 | 33 | 1015.2 |
| 20260503215503 | 61 | 325 | 3.5 | 8.7 | 0.00 | 0.00 | 0.00 | 34 | 1015.2 |
| 20260503215003 | 61 | 329 | 3.5 | 13.0 | 0.00 | 0.00 | 0.00 | 35 | 1015.2 |
| 20260503214502 | 61 | 315 | 3.5 | 13.0 | 0.00 | 0.00 | 0.00 | 34 | 1015.1 |
| 20260503213502 | 61 | 316 | 3.5 | 7.0 | 0.00 | 0.00 | 0.00 | 35 | 1015.1 |
| 20260503213003 | 61 | 320 | 3.5 | 10.4 | 0.00 | 0.00 | 0.00 | 35 | 1015.2 |
| 20260503212503 | 60 | 322 | 4.3 | 10.4 | 0.00 | 0.00 | 0.00 | 35 | 1015.1 |
| 20260503212003 | 61 | 326 | 4.3 | 20.0 | 0.00 | 0.00 | 0.00 | 34 | 1015.2 |
| 20260503211503 | 61 | 332 | 5.2 | 20.0 | 0.00 | 0.00 | 0.00 | 33 | 1015.1 |
| 20260503211002 | 61 | 330 | 4.3 | 10.4 | 0.00 | 0.00 | 0.00 | 33 | 1015.1 |
| 20260503210503 | 61 | 320 | 3.5 | 10.4 | 0.00 | 0.00 | 0.00 | 34 | 1015.1 |
| 20260503210003 | 61 | 329 | 4.3 | 11.3 | 0.00 | 0.00 | 0.00 | 33 | 1015.1 |
| 20260503205504 | 61 | 328 | 4.3 | 11.3 | 0.00 | 0.00 | 0.00 | 33 | 1015.1 |
| 20260503205002 | 61 | 329 | 4.3 | 10.4 | 0.00 | 0.00 | 0.00 | 33 | 1015.1 |
| 20260503204503 | 61 | 334 | 3.5 | 10.4 | 0.00 | 0.00 | 0.00 | 34 | 1015.0 |
| 20260503204003 | 60 | 331 | 3.5 | 9.6 | 0.00 | 0.00 | 0.00 | 35 | 1014.9 |
| 20260503203502 | 60 | 327 | 3.5 | 9.6 | 0.00 | 0.00 | 0.00 | 33 | 1015.1 |
| 20260503203003 | 60 | 322 | 3.5 | 8.7 | 0.00 | 0.00 | 0.00 | 36 | 1015.0 |
| 20260503202503 | 60 | 324 | 4.3 | 18.2 | 0.00 | 0.00 | 0.00 | 35 | 1015.1 |
| 20260503202002 | 60 | 330 | 4.3 | 18.2 | 0.00 | 0.00 | 0.00 | 33 | 1015.2 |
| 20260503201504 | 60 | 344 | 5.2 | 20.9 | 0.00 | 0.00 | 0.00 | 34 | 1015.3 |
| 20260503201002 | 60 | 344 | 5.2 | 20.9 | 0.00 | 0.00 | 0.00 | 33 | 1015.4 |
| 20260503200503 | 60 | 332 | 4.3 | 11.3 | 0.00 | 0.00 | 0.00 | 33 | 1015.5 |
| 20260503195503 | 60 | 327 | 3.5 | 9.6 | 0.00 | 0.00 | 0.00 | 33 | 1015.5 |
| 20260503194503 | 60 | 347 | 4.3 | 15.6 | 0.00 | 0.00 | 0.00 | 35 | 1015.6 |
| 20260503194006 | 60 | 343 | 5.2 | 16.5 | 0.00 | 0.00 | 0.00 | 34 | 1015.5 |
| 20260503193502 | 60 | 336 | 4.3 | 16.5 | 0.00 | 0.00 | 0.00 | 33 | 1015.6 |
| 20260503193003 | 60 | 331 | 3.5 | 13.9 | 0.00 | 0.00 | 0.00 | 35 | 1015.6 |
| 20260503192502 | 59 | 331 | 3.5 | 9.6 | 0.00 | 0.00 | 0.00 | 34 | 1015.7 |
| 20260503192003 | 59 | 328 | 3.5 | 9.6 | 0.00 | 0.00 | 0.00 | 35 | 1015.6 |
| 20260503191503 | 58 | 329 | 3.5 | 9.6 | 0.00 | 0.00 | 0.00 | 36 | 1015.6 |